Tracking 29892 objects as of 21-Nov-2024
HD Live streaming from Space Station
objects crossing your sky now

STARLINK-6055

Track STARLINK-6055 now!
10-day predictions
STARLINK-6055 is classified as:


NORAD ID: 56467
Int'l Code: 2023-064V
Perigee: 577.1 km
Apogee: 581.1 km
Inclination: 70.0 °
Period: 96.1 minutes
Semi major axis: 6950 km
RCS: Unknown
Launch date: May 10, 2023
Source: United States (US)
Launch site: AIR FORCE WESTERN TEST RANGE (AFWTR)
Your satellite tracking list
Your tracking list is empty




NASA's NSSDC Master Catalog

Two Line Element Set (TLE):
1 56467U 23064V   24325.20924694  .00003063  00000-0  26418-3 0  9991
2 56467  70.0004 240.9084 0002929 271.4252  88.6571 14.98361899 84660
Source of the keplerian elements: AFSPC